Weather History for Flippin, AR

Change the Weather History Date:

Thursday, February 27, 2014

  Actual Average Record
Temperature  
Mean Temperature 32 °F -  
Max Temperature 48 °F 51 °F 71 °F (1999)
Min Temperature 15 °F 33 °F 12 °F (2002)
Degree Days  
Heating Degree Days 34    
Moisture  
Dew Point 8 °F    
Average Humidity 36    
Maximum Humidity 58    
Minimum Humidity 23    
Precipitation  
Precipitation 0.00 in - - ()
Sea Level Pressure  
Sea Level Pressure 30.03 in    
Wind  
Wind Speed 3 mph (ENE)    
Max Wind Speed 10 mph    
Max Gust Speed -    
Visibility 10 miles    
Events      
Averages and records for this station are not official NWS values.
T = Trace of Precipitation, MM = Missing Value Source: NWS Daily Summary

Daily Weather History Graph

Daily Weather History Graph

Search for Another Location

Airport:

Trip Planner

Search our weather history database for the weather conditions in past years. The results will help you decide how hot, cold, wet, or windy it might be!

Date:

Astronomy

Feb. 27, 2014 Rise Set
Actual Time 6:43 AM CST 6:03 PM CST
Civil Twilight 6:17 AM CST 6:29 PM CST
Nautical Twilight 5:47 AM CST 6:58 PM CST
Astronomical Twilight 5:17 AM CST 7:28 PM CST
Moon 5:13 AM CST (2/27) 4:30 PM CST (2/27)
Length of Visible Light 12h 11m
Length of Day
11h 19m
Waning Crescent, 4% of the Moon is Illuminated
Feb 27
Waning Crescent
Mar 1
New
Mar 8
First Quarter
Mar 16
Full
Mar 23
Last Quarter

Hourly Weather History & Observations

Time (CST) Temp. Windchill Dew Point Humidity Pressure Visibility Wind Dir Wind Speed Gust Speed Precip Events Conditions
12:15 AM 24.8 °F 17.9 °F -0.4 °F 34% 30.06 in 10.0 mi SW 5.8 mph - N/A   Clear
12:35 AM 23.0 °F 15.8 °F -0.4 °F 36% 30.06 in 10.0 mi WSW 5.8 mph - N/A   Clear
12:55 AM 23.0 °F 18.4 °F -0.4 °F 36% 30.06 in 10.0 mi SW 3.5 mph - N/A   Clear
1:15 AM 23.0 °F 18.4 °F -0.4 °F 36% 30.06 in 10.0 mi SW 3.5 mph - N/A   Clear
1:35 AM 23.0 °F 17.0 °F -0.4 °F 36% 30.05 in 10.0 mi SW 4.6 mph - N/A   Clear
1:55 AM 21.2 °F - -0.4 °F 39% 30.05 in 10.0 mi Calm Calm - N/A   Clear
2:15 AM 21.2 °F 16.4 °F -0.4 °F 39% 30.05 in 10.0 mi SW 3.5 mph - N/A   Clear
2:35 AM 21.2 °F - -0.4 °F 39% 30.04 in 10.0 mi Calm Calm - N/A   Clear
2:55 AM 21.2 °F - -0.4 °F 39% 30.04 in 10.0 mi Calm Calm - N/A   Clear
3:15 AM 21.2 °F - -0.4 °F 39% 30.04 in 10.0 mi Calm Calm - N/A   Clear
3:35 AM 21.2 °F 16.4 °F -0.4 °F 39% 30.03 in 10.0 mi West 3.5 mph - N/A   Clear
3:55 AM 21.2 °F - 1.4 °F 42% 30.03 in 10.0 mi Calm Calm - N/A   Clear
4:15 AM 17.6 °F - -0.4 °F 45% 30.03 in 10.0 mi Calm Calm - N/A   Clear
4:35 AM 15.8 °F - 1.4 °F 53% 30.03 in 10.0 mi Calm Calm - N/A   Clear
4:55 AM 17.6 °F - 1.4 °F 49% 30.04 in 10.0 mi Calm Calm - N/A   Clear
5:15 AM 17.6 °F - 1.4 °F 49% 30.04 in 10.0 mi Calm Calm - N/A   Clear
5:35 AM 17.6 °F - 1.4 °F 49% 30.04 in 10.0 mi Calm Calm - N/A   Clear
5:55 AM 19.4 °F 11.5 °F 3.2 °F 49% 30.05 in 10.0 mi West 5.8 mph - N/A   Clear
6:15 AM 19.4 °F - 3.2 °F 49% 30.05 in 10.0 mi Calm Calm - N/A   Clear
6:35 AM 17.6 °F - 1.4 °F 49% 30.06 in 10.0 mi Calm Calm - N/A   Clear
6:55 AM 17.6 °F - 1.4 °F 49% 30.07 in 10.0 mi Calm Calm - N/A   Clear
7:15 AM 19.4 °F - 3.2 °F 49% 30.08 in 10.0 mi Calm Calm - N/A   Clear
7:35 AM 19.4 °F - 6.8 °F 58% 30.09 in 10.0 mi Calm Calm - N/A   Clear
7:55 AM 21.2 °F - 6.8 °F 54% 30.09 in 10.0 mi Calm Calm - N/A   Clear
8:15 AM 24.8 °F - 8.6 °F 50% 30.10 in 10.0 mi Calm Calm - N/A   Clear
8:35 AM 26.6 °F - 10.4 °F 51% 30.11 in 10.0 mi Calm Calm - N/A   Clear
8:55 AM 28.4 °F 21.2 °F 10.4 °F 47% 30.11 in 10.0 mi North 6.9 mph - N/A   Clear
9:15 AM 33.8 °F 27.7 °F 12.2 °F 41% 30.11 in 10.0 mi NNW 6.9 mph - N/A   Clear
9:35 AM 33.8 °F 26.4 °F 10.4 °F 38% 30.12 in 10.0 mi NNW 9.2 mph - N/A   Clear
9:55 AM 35.6 °F 31.7 °F 12.2 °F 38% 30.12 in 10.0 mi North 4.6 mph - N/A   Clear
10:15 AM 35.6 °F 30.7 °F 10.4 °F 35% 30.12 in 10.0 mi NE 5.8 mph - N/A   Clear
10:35 AM 37.4 °F 30.3 °F 12.2 °F 36% 30.11 in 10.0 mi NNW 10.4 mph - N/A   Clear
10:55 AM 37.4 °F - 12.2 °F 36% 30.11 in 10.0 mi Calm Calm - N/A   Clear
11:15 AM 39.2 °F 34.2 °F 12.2 °F 33% 30.11 in 10.0 mi NNW 6.9 mph - N/A   Clear
11:35 AM 41.0 °F 37.1 °F 12.2 °F 31% 30.10 in 10.0 mi ENE 5.8 mph - N/A   Clear
11:55 AM 39.2 °F 33.6 °F 12.2 °F 33% 30.08 in 10.0 mi NNE 8.1 mph - N/A   Clear
12:15 PM 39.2 °F 37.0 °F 10.4 °F 31% 30.08 in 10.0 mi South 3.5 mph - N/A   Clear
12:35 PM 41.0 °F - 10.4 °F 29% 30.07 in 10.0 mi Calm Calm - N/A   Clear
12:55 PM 42.8 °F 40.1 °F 10.4 °F 27% 30.06 in 10.0 mi ESE 4.6 mph - N/A   Clear
1:15 PM 44.6 °F 43.1 °F 12.2 °F 27% 30.05 in 10.0 mi North 3.5 mph - N/A   Clear
1:35 PM 42.8 °F 38.6 °F 10.4 °F 27% 30.04 in 10.0 mi NE 6.9 mph - N/A   Clear
1:55 PM 44.6 °F 42.2 °F 10.4 °F 25% 30.02 in 10.0 mi SE 4.6 mph - N/A   Clear
2:15 PM 44.6 °F 42.2 °F 12.2 °F 27% 30.02 in 10.0 mi ESE 4.6 mph - N/A   Clear
2:35 PM 44.6 °F - 12.2 °F 27% 30.01 in 10.0 mi Calm Calm - N/A   Clear
2:55 PM 46.4 °F - 12.2 °F 25% 30.00 in 10.0 mi Calm Calm - N/A   Clear
3:15 PM 46.4 °F 45.2 °F 12.2 °F 25% 29.99 in 10.0 mi East 3.5 mph - N/A   Clear
3:35 PM 46.4 °F 44.3 °F 12.2 °F 25% 30.00 in 10.0 mi North 4.6 mph - N/A   Clear
3:55 PM 46.4 °F 45.2 °F 12.2 °F 25% 29.99 in 10.0 mi ENE 3.5 mph - N/A   Clear
4:15 PM 48.2 °F - 12.2 °F 24% 29.98 in 10.0 mi NNE 5.8 mph - N/A   Clear
4:35 PM 46.4 °F 44.3 °F 12.2 °F 25% 29.97 in 10.0 mi East 4.6 mph - N/A   Clear
4:55 PM 46.4 °F 45.2 °F 10.4 °F 23% 29.97 in 9.0 mi ENE 3.5 mph - N/A   Clear
5:15 PM 46.4 °F 44.3 °F 10.4 °F 23% 29.97 in 10.0 mi East 4.6 mph - N/A   Clear
5:35 PM 44.6 °F 41.4 °F 10.4 °F 25% 29.96 in 10.0 mi ENE 5.8 mph - N/A   Clear
5:55 PM 44.6 °F 42.2 °F 10.4 °F 25% 29.96 in 10.0 mi ENE 4.6 mph - N/A   Clear
6:15 PM 42.8 °F 40.1 °F 8.6 °F 25% 29.96 in 10.0 mi East 4.6 mph - N/A   Clear
6:35 PM 42.8 °F 40.1 °F 8.6 °F 25% 29.96 in 10.0 mi ENE 4.6 mph - N/A   Clear
6:55 PM 41.0 °F 38.0 °F 8.6 °F 26% 29.96 in 10.0 mi East 4.6 mph - N/A   Clear
7:15 PM 39.2 °F 37.0 °F 8.6 °F 28% 29.96 in 10.0 mi ESE 3.5 mph - N/A   Clear
7:35 PM 39.2 °F - 8.6 °F 28% 29.96 in 10.0 mi Calm Calm - N/A   Clear
7:55 PM 37.4 °F - 8.6 °F 30% 29.97 in 10.0 mi Calm Calm - N/A   Clear
8:15 PM 37.4 °F - 8.6 °F 30% 29.98 in 10.0 mi Calm Calm - N/A   Clear
8:35 PM 35.6 °F - 8.6 °F 33% 29.98 in 10.0 mi Calm Calm - N/A   Clear
8:55 PM 37.4 °F 34.9 °F 10.4 °F 33% 29.98 in 10.0 mi East 3.5 mph - N/A   Clear
9:15 PM 35.6 °F 31.7 °F 10.4 °F 35% 29.97 in 10.0 mi East 4.6 mph - N/A   Clear
9:35 PM 35.6 °F 30.7 °F 10.4 °F 35% 29.98 in 10.0 mi East 5.8 mph - N/A   Clear
9:55 PM 35.6 °F 31.7 °F 10.4 °F 35% 29.97 in 10.0 mi ESE 4.6 mph - N/A   Clear
10:15 PM 33.8 °F 29.6 °F 12.2 °F 41% 29.97 in 10.0 mi East 4.6 mph - N/A   Clear
10:35 PM 33.8 °F 29.6 °F 12.2 °F 41% 29.97 in 10.0 mi East 4.6 mph - N/A   Clear
10:55 PM 33.8 °F 29.6 °F 12.2 °F 41% 29.97 in 10.0 mi ESE 4.6 mph - N/A   Clear
11:15 PM 33.8 °F 29.6 °F 12.2 °F 41% 29.97 in 10.0 mi East 4.6 mph - N/A   Clear
11:35 PM 33.8 °F 29.6 °F 12.2 °F 41% 29.97 in 10.0 mi East 4.6 mph - N/A   Clear
11:55 PM 33.8 °F 29.6 °F 12.2 °F 41% 29.98 in 10.0 mi East 4.6 mph - N/A   Clear